This is the latest recevied weather packets stored in our database for station/object N5CSU. If no packets are shown the sender has not sent any weather packets the latest 10 day(s).
| Time | Temp. | Humidity | Pressure | Rain* | Wind** | Luminosity | Snow |
|---|---|---|---|---|---|---|---|
| 1778009227 | 28.89° C | 69% | 1005.2 hPa | 0 mm | - | 52 W/m² | - |
| 1778008924 | 28.89° C | 69% | 1005.1 hPa | 0 mm | - | 55 W/m² | - |
| 1778008622 | 28.89° C | 69% | 1005 hPa | 0 mm | - | 91 W/m² | - |
| 1778008320 | 28.89° C | 72% | 1005.1 hPa | 0 mm | - | 28 W/m² | - |
| 1778008016 | 28.89° C | 69% | 1005.2 hPa | 0 mm | - | 31 W/m² | - |
| 1778007715 | 28.89° C | 71% | 1005.1 hPa | 0 mm | - | 30 W/m² | - |
| 1778007412 | 28.33° C | 72% | 1005.3 hPa | 0 mm | - | 32 W/m² | - |
| 1778007109 | 28.33° C | 72% | 1005.3 hPa | 0 mm | - | 50 W/m² | - |
| 1778006805 | 28.33° C | 72% | 1005.3 hPa | 0 mm | - | 45 W/m² | - |
| 1778006503 | 27.78° C | 73% | 1005.2 hPa | 0 mm | - | 38 W/m² | - |
| 1778006200 | 27.78° C | 73% | 1005.5 hPa | 0 mm | - | 47 W/m² | - |
| 1778005897 | 27.78° C | 73% | 1005.2 hPa | 0 mm | - | 33 W/m² | - |
| 1778005593 | 27.78° C | 73% | 1005.4 hPa | 0 mm | - | 47 W/m² | - |
| 1778005291 | 27.78° C | 73% | 1005.6 hPa | 0 mm | - | 34 W/m² | - |
| 1778004986 | 27.78° C | 74% | 1005.5 hPa | 0 mm | - | 38 W/m² | - |
| 1778004684 | 27.78° C | 73% | 1005.5 hPa | 0 mm | - | 40 W/m² | - |
| 1778004380 | 27.22° C | 73% | 1005.6 hPa | 0 mm | - | 42 W/m² | - |
| 1778004078 | 27.22° C | 74% | 1005.5 hPa | 0 mm | - | 39 W/m² | - |
| 1778003773 | 27.78° C | 73% | 1005.6 hPa | 0 mm | - | 35 W/m² | - |
| 1778003470 | 27.78° C | 72% | 1005.4 hPa | 0 mm | - | 33 W/m² | - |
| 1778003166 | 27.78° C | 71% | 1005.6 hPa | 0 mm | - | 55 W/m² | - |
| 1778002862 | 27.78° C | 72% | 1005.7 hPa | 0 mm | - | 52 W/m² | - |
| 1778002554 | 27.78° C | 75% | 1005.4 hPa | 0 mm | - | 137 W/m² | - |
| 1778002251 | 27.22° C | 73% | 1005.6 hPa | 0 mm | - | 120 W/m² | - |
| 1778001949 | 27.22° C | 73% | 1005.6 hPa | 0 mm | - | 61 W/m² | - |
* Rain latest hour (hover to see other rain measurements)
** Current wind speed in m/s (hover to see current wind gust speed)